When you browse on this site, cookies collect data to enhance your experience and personalize the content and advertising you see.
Visit our Privacy Policy to learn more. By continuing to use the site, you agree to this use of cookies and data.

Hourly Weather Hreten

Today, 2 July, Thursday

Time Temperature Precipitation Wind Pressure Humidity
00:00 +13°C° 0 mm 2 mps 736 mmHg 96%
01:00 +13°C° 0 mm 2 mps 736 mmHg 96%
02:00 +13°C° 0 mm 2 mps 736 mmHg 98%
03:00 +13°C° 0 mm 2 mps 736 mmHg 96%
04:00 +14°C° 0 mm 2 mps 736 mmHg 95%
05:00 +13°C° 0 mm 3 mps 737 mmHg 94%
06:00 +16°C° 0 mm 3 mps 737 mmHg 85%
07:00 +17°C° 0 mm 3 mps 737 mmHg 76%
08:00 +19°C° 0 mm 4 mps 737 mmHg 67%
09:00 +20°C° 0.1 mm 4 mps 737 mmHg 64%
10:00 +21°C° 0.1 mm 4 mps 737 mmHg 62%
11:00 +22°C° 0.1 mm 4 mps 737 mmHg 59%
12:00 +22°C° 0.1 mm 4 mps 737 mmHg 60%
13:00 +22°C° 0.1 mm 3 mps 737 mmHg 61%
14:00 +24°C° 0.1 mm 3 mps 737 mmHg 61%
15:00 +22°C° 0.3 mm 3 mps 737 mmHg 68%
16:00 +22°C° 0.3 mm 3 mps 737 mmHg 74%
17:00 +21°C° 0.3 mm 3 mps 737 mmHg 80%
18:00 +20°C° 0.2 mm 2 mps 737 mmHg 85%
19:00 +19°C° 0.2 mm 2 mps 737 mmHg 90%
20:00 +19°C° 0.2 mm 1 mps 737 mmHg 95%
21:00 +18°C° 0 mm 1 mps 736 mmHg 96%
22:00 +18°C° 0 mm 1 mps 736 mmHg 97%
23:00 +16°C° 0 mm 2 mps 736 mmHg 98%

Tomorrow, 3 July, Friday

Time Temperature Precipitation Wind Pressure Humidity
00:00 +16°C° 0 mm 2 mps 737 mmHg 98%
01:00 +16°C° 0 mm 2 mps 737 mmHg 98%
02:00 +16°C° 0 mm 2 mps 737 mmHg 98%
03:00 +16°C° 0 mm 2 mps 737 mmHg 98%
04:00 +17°C° 0 mm 2 mps 737 mmHg 98%
05:00 +17°C° 0 mm 2 mps 737 mmHg 98%
06:00 +17°C° 0 mm 2 mps 738 mmHg 94%
07:00 +18°C° 0 mm 2 mps 738 mmHg 90%
08:00 +18°C° 0 mm 3 mps 739 mmHg 86%
09:00 +20°C° 0 mm 3 mps 739 mmHg 74%
10:00 +22°C° 0 mm 3 mps 739 mmHg 62%
11:00 +24°C° 0 mm 3 mps 740 mmHg 50%
12:00 +25°C° 0 mm 3 mps 740 mmHg 48%
13:00 +26°C° 0 mm 3 mps 739 mmHg 46%
14:00 +26°C° 0 mm 3 mps 739 mmHg 44%
15:00 +26°C° 0 mm 2 mps 739 mmHg 47%
16:00 +25°C° 0 mm 2 mps 739 mmHg 50%
17:00 +25°C° 0 mm 2 mps 739 mmHg 53%
18:00 +23°C° 0 mm 1 mps 739 mmHg 60%
19:00 +22°C° 0 mm 1 mps 739 mmHg 67%
20:00 +20°C° 0 mm 1 mps 739 mmHg 74%
21:00 +19°C° 0 mm 1 mps 739 mmHg 74%
22:00 +19°C° 0 mm 1 mps 739 mmHg 74%
23:00 +18°C° 0 mm 1 mps 739 mmHg 75%

Day after tomorrow, 4 July, Saturday

Time Temperature Precipitation Wind Pressure Humidity
00:00 +18°C° 0.2 mm 1 mps 739 mmHg 79%
01:00 +18°C° 0.2 mm 1 mps 739 mmHg 84%
02:00 +18°C° 0.2 mm 1 mps 739 mmHg 88%
03:00 +16°C° 0.6 mm 1 mps 739 mmHg 91%
04:00 +16°C° 0.6 mm 1 mps 738 mmHg 93%
05:00 +15°C° 0.6 mm 0 mps 738 mmHg 96%
06:00 +18°C° 0 mm 1 mps 739 mmHg 90%
07:00 +20°C° 0 mm 1 mps 739 mmHg 85%
08:00 +21°C° 0 mm 1 mps 739 mmHg 79%
09:00 +22°C° 0.1 mm 1 mps 739 mmHg 74%
10:00 +23°C° 0.1 mm 2 mps 739 mmHg 69%
11:00 +24°C° 0.1 mm 2 mps 739 mmHg 65%
12:00 +25°C° 0.2 mm 3 mps 739 mmHg 61%
13:00 +25°C° 0.2 mm 3 mps 739 mmHg 58%
14:00 +26°C° 0.2 mm 3 mps 739 mmHg 55%
15:00 +26°C° 0 mm 3 mps 739 mmHg 54%
16:00 +25°C° 0 mm 3 mps 739 mmHg 53%
17:00 +25°C° 0 mm 3 mps 739 mmHg 51%
18:00 +22°C° 0 mm 3 mps 739 mmHg 58%
19:00 +20°C° 0 mm 2 mps 740 mmHg 64%
20:00 +18°C° 0 mm 2 mps 740 mmHg 71%
21:00 +17°C° 0 mm 2 mps 740 mmHg 73%
22:00 +16°C° 0 mm 1 mps 740 mmHg 75%
23:00 +14°C° 0 mm 1 mps 741 mmHg 77%

5 July, Sunday

Time Temperature Precipitation Wind Pressure Humidity
00:00 +14°C° 0 mm 1 mps 741 mmHg 77%
01:00 +14°C° 0 mm 1 mps 741 mmHg 78%
02:00 +14°C° 0 mm 2 mps 741 mmHg 78%
03:00 +14°C° 0 mm 2 mps 741 mmHg 79%
04:00 +15°C° 0 mm 2 mps 741 mmHg 79%
05:00 +16°C° 0 mm 2 mps 741 mmHg 79%
06:00 +17°C° 0 mm 2 mps 741 mmHg 74%
07:00 +19°C° 0 mm 3 mps 741 mmHg 70%
08:00 +21°C° 0 mm 3 mps 741 mmHg 65%
09:00 +22°C° 0 mm 3 mps 741 mmHg 61%
10:00 +24°C° 0 mm 3 mps 741 mmHg 58%
11:00 +25°C° 0 mm 4 mps 740 mmHg 54%
12:00 +25°C° 0.1 mm 4 mps 740 mmHg 55%
13:00 +26°C° 0.1 mm 3 mps 740 mmHg 57%
14:00 +26°C° 0.1 mm 3 mps 739 mmHg 58%
15:00 +25°C° 0.4 mm 3 mps 739 mmHg 67%
16:00 +24°C° 0.4 mm 3 mps 739 mmHg 75%
17:00 +24°C° 0.4 mm 2 mps 738 mmHg 84%
18:00 +21°C° 0.4 mm 2 mps 738 mmHg 87%
19:00 +20°C° 0.4 mm 2 mps 738 mmHg 90%
20:00 +19°C° 0.4 mm 2 mps 738 mmHg 93%
21:00 +18°C° 0 mm 2 mps 738 mmHg 94%
22:00 +18°C° 0 mm 2 mps 738 mmHg 95%
23:00 +17°C° 0 mm 3 mps 737 mmHg 96%

6 July, Monday

Time Temperature Precipitation Wind Pressure Humidity
00:00 +17°C° 0 mm 3 mps 737 mmHg 96%
01:00 +17°C° 0 mm 3 mps 737 mmHg 96%
02:00 +17°C° 0 mm 3 mps 736 mmHg 96%
03:00 +17°C° 0 mm 4 mps 736 mmHg 96%
04:00 +17°C° 0 mm 4 mps 736 mmHg 95%
05:00 +18°C° 0 mm 4 mps 735 mmHg 94%
06:00 +19°C° 0 mm 4 mps 735 mmHg 90%
07:00 +19°C° 0 mm 5 mps 735 mmHg 85%
08:00 +20°C° 0 mm 5 mps 735 mmHg 81%
09:00 +21°C° 0.1 mm 5 mps 735 mmHg 80%
10:00 +21°C° 0.1 mm 5 mps 734 mmHg 79%
11:00 +21°C° 0.1 mm 5 mps 734 mmHg 78%
12:00 +22°C° 0.3 mm 6 mps 734 mmHg 76%
13:00 +23°C° 0.3 mm 6 mps 734 mmHg 74%
14:00 +23°C° 0.3 mm 6 mps 734 mmHg 71%
15:00 +24°C° 0.1 mm 6 mps 734 mmHg 67%
16:00 +24°C° 0.1 mm 6 mps 734 mmHg 62%
17:00 +25°C° 0.1 mm 5 mps 734 mmHg 58%
18:00 +22°C° 0.1 mm 4 mps 734 mmHg 65%
19:00 +21°C° 0.1 mm 4 mps 735 mmHg 72%
20:00 +19°C° 0.1 mm 3 mps 735 mmHg 80%
21:00 +18°C° 0 mm 3 mps 735 mmHg 83%
22:00 +18°C° 0 mm 3 mps 735 mmHg 87%
23:00 +17°C° 0 mm 3 mps 736 mmHg 91%

7 July, Tuesday

Time Temperature Precipitation Wind Pressure Humidity
00:00 +16°C° 0 mm 2 mps 736 mmHg 93%
01:00 +16°C° 0 mm 2 mps 736 mmHg 95%
02:00 +15°C° 0 mm 2 mps 736 mmHg 97%
03:00 +16°C° 0 mm 3 mps 736 mmHg 94%
04:00 +17°C° 0 mm 3 mps 736 mmHg 92%
05:00 +17°C° 0 mm 3 mps 736 mmHg 89%
06:00 +19°C° 0 mm 4 mps 736 mmHg 80%
07:00 +20°C° 0 mm 5 mps 736 mmHg 72%
08:00 +22°C° 0 mm 5 mps 736 mmHg 63%
09:00 +22°C° 0 mm 5 mps 737 mmHg 59%
10:00 +22°C° 0 mm 5 mps 737 mmHg 55%
11:00 +22°C° 0 mm 5 mps 737 mmHg 52%
12:00 +23°C° 0 mm 5 mps 737 mmHg 47%
13:00 +23°C° 0 mm 5 mps 737 mmHg 42%
14:00 +25°C° 0 mm 5 mps 737 mmHg 37%
15:00 +25°C° 0 mm 4 mps 737 mmHg 38%
16:00 +23°C° 0 mm 4 mps 737 mmHg 39%
17:00 +23°C° 0 mm 4 mps 738 mmHg 40%
18:00 +21°C° 0 mm 3 mps 738 mmHg 49%
19:00 +19°C° 0 mm 2 mps 738 mmHg 58%
20:00 +17°C° 0 mm 2 mps 738 mmHg 67%
21:00 +16°C° 0 mm 2 mps 738 mmHg 70%
22:00 +15°C° 0 mm 2 mps 739 mmHg 73%
23:00 +14°C° 0 mm 1 mps 739 mmHg 76%
Show more